Location: Mason
(37.5237°N, 89.2543°W)
Time: 08:03:20
(UTC+00:00)

EXPRESS MD2 - Pass Details

Date: 24 January 2021
Orbit: 260 x 3982 km, 49.9° (Epoch: 08 March)

Event Time Altitude Azimuth Distance (km) Brightness Sun altitude
Rises 23:29:04 0° 304° (NW) 5,456 8.9 -3.8°
Reaches altitude 10° 23:33:42 10° 308° (NW) 3,786 8.0 -4.7°
Maximum altitude 23:42:07 57° 25° (NNE) 999 4.4 -6.3°
Drops below altitude 10° 23:46:10 10° 105° (ESE) 1,860 5.5 -7.0°
Enters shadow 23:47:11 - 109° (ESE) 2,260 6.0 -7.2°
